User: anonymous   Login
Location: Hancock Field Station
(44.9202°N, 120.4259°W)
Time: 15:24:39
(UTC-08:00)
Language:

Nadezhda 4 Rocket - Orbit

View from above orbital plane
View from above orbital plane
View from above satellite
View from above satellite

Ground track
Ground track

The orbit data is extracted from the following two-line orbital elements,

1 23180U 94041B   15058.89307329  .00000122  00000-0  10568-3 0  9990
2 23180 082.9470 196.2928 0029978 062.1562 050.1756 13.77876846 37180
Epoch (UTC): 27 February 2015 21:26:01
Eccentricity: 0.0029978
inclination: 82.9470°
perigee height: 949 km
apogee height: 993 km
right ascension of ascending node: 196.2928°
argument of perigee: 62.1562°
revolutions per day: 13.77876846
mean anomaly at epoch: 50.1756°
orbit number at epoch: 3718

The dashed part of the orbit path shows where the satellite is in the earth's shadow,  

DLR